Time,TemperatureF,DewpointF,PressureIn,WindDirection,WindDirectionDegrees,WindSpeedMPH,WindSpeedGustMPH,Humidity,HourlyPrecipIn,Conditions,Clouds,dailyrainin,SoftwareType,DateUTC
2013-06-27 00:05:00,82.2,71.4,29.90,WSW,247,0.0,-999.0,70,0.00,,,0.00,open2300 v1.10,2013-06-27 05:05:00,
2013-06-27 00:12:00,82.2,71.4,29.90,SSE,157,0.0,-999.0,70,0.00,,,0.00,open2300 v1.10,2013-06-27 05:12:00,
2013-06-27 00:18:00,82.2,71.4,29.90,SSE,157,0.0,-999.0,70,0.00,,,0.00,open2300 v1.10,2013-06-27 05:18:00,
2013-06-27 00:27:00,82.2,71.4,29.91,SSE,157,0.0,-999.0,70,0.00,,,0.00,open2300 v1.10,2013-06-27 05:27:00,
2013-06-27 00:33:00,82.2,71.4,29.91,SE,135,0.0,-999.0,70,0.00,,,0.00,open2300 v1.10,2013-06-27 05:33:00,
2013-06-27 00:42:00,82.2,71.4,29.91,South,180,0.0,-999.0,70,0.00,,,0.00,open2300 v1.10,2013-06-27 05:42:00,
2013-06-27 00:48:00,82.0,71.7,29.91,SE,135,0.0,-999.0,71,0.00,,,0.00,open2300 v1.10,2013-06-27 05:48:00,
2013-06-27 00:57:00,82.0,71.7,29.91,SSE,157,0.0,-999.0,71,0.00,,,0.00,open2300 v1.10,2013-06-27 05:57:00,
2013-06-27 01:06:00,82.0,71.7,29.91,SW,225,0.0,-999.0,71,0.00,,,0.00,open2300 v1.10,2013-06-27 06:06:00,
2013-06-27 01:12:00,82.0,71.7,29.91,SE,135,0.0,-999.0,71,0.00,,,0.00,open2300 v1.10,2013-06-27 06:12:00,
2013-06-27 01:18:00,81.7,71.8,29.91,SE,135,0.0,-999.0,72,0.00,,,0.00,open2300 v1.10,2013-06-27 06:18:00,
2013-06-27 01:27:00,81.7,71.8,29.91,SE,135,0.0,-999.0,72,0.00,,,0.00,open2300 v1.10,2013-06-27 06:27:00,
2013-06-27 01:33:00,81.7,71.8,29.91,South,180,0.0,-999.0,72,0.00,,,0.00,open2300 v1.10,2013-06-27 06:33:00,
2013-06-27 01:42:00,81.5,72.0,29.91,SE,135,0.0,-999.0,73,0.00,,,0.00,open2300 v1.10,2013-06-27 06:42:00,
2013-06-27 01:48:00,81.5,72.0,29.90,WSW,247,0.0,-999.0,73,0.00,,,0.00,open2300 v1.10,2013-06-27 06:48:00,
2013-06-27 01:57:00,81.3,71.8,29.90,SE,135,0.0,-999.0,73,0.00,,,0.00,open2300 v1.10,2013-06-27 06:57:00,
2013-06-27 02:04:00,81.1,72.1,29.90,SE,135,0.0,-999.0,74,0.00,,,0.00,open2300 v1.10,2013-06-27 07:04:00,
2013-06-27 02:12:00,81.1,72.1,29.91,SSE,157,0.0,-999.0,74,0.00,,,0.00,open2300 v1.10,2013-06-27 07:12:00,
2013-06-27 02:18:00,81.1,72.1,29.90,SE,135,0.0,-999.0,74,0.00,,,0.00,open2300 v1.10,2013-06-27 07:18:00,
2013-06-27 02:27:00,81.1,72.1,29.91,SSW,202,0.0,-999.0,74,0.00,,,0.00,open2300 v1.10,2013-06-27 07:27:00,
2013-06-27 02:33:00,81.1,72.1,29.90,SSW,202,0.0,-999.0,74,0.00,,,0.00,open2300 v1.10,2013-06-27 07:33:00,
2013-06-27 02:42:00,81.0,72.3,29.90,SE,135,0.0,-999.0,75,0.00,,,0.00,open2300 v1.10,2013-06-27 07:42:00,
2013-06-27 02:48:00,80.8,72.1,29.91,SE,135,0.0,-999.0,75,0.00,,,0.00,open2300 v1.10,2013-06-27 07:48:00,
2013-06-27 02:57:00,80.6,72.0,29.90,South,180,0.0,-999.0,75,0.00,,,0.00,open2300 v1.10,2013-06-27 07:57:00,
2013-06-27 03:04:00,80.6,72.4,29.90,SSE,157,0.0,-999.0,76,0.00,,,0.00,open2300 v1.10,2013-06-27 08:04:00,
2013-06-27 03:12:00,80.4,72.2,29.90,SSE,157,0.0,-999.0,76,0.00,,,0.00,open2300 v1.10,2013-06-27 08:12:00,
2013-06-27 03:18:00,80.4,72.2,29.90,West,270,0.0,-999.0,76,0.00,,,0.00,open2300 v1.10,2013-06-27 08:18:00,
2013-06-27 03:27:00,80.4,72.2,29.90,SE,135,0.0,-999.0,76,0.00,,,0.00,open2300 v1.10,2013-06-27 08:27:00,
2013-06-27 03:33:00,80.2,72.0,29.90,SE,135,0.0,-999.0,76,0.00,,,0.00,open2300 v1.10,2013-06-27 08:33:00,
2013-06-27 03:42:00,80.2,72.4,29.90,SE,135,0.0,-999.0,77,0.00,,,0.00,open2300 v1.10,2013-06-27 08:42:00,
2013-06-27 03:48:00,79.9,72.0,29.90,SE,135,0.0,-999.0,77,0.00,,,0.00,open2300 v1.10,2013-06-27 08:48:00,
2013-06-27 03:57:00,79.9,72.0,29.90,SE,135,0.0,-999.0,77,0.00,,,0.00,open2300 v1.10,2013-06-27 08:57:00,
2013-06-27 04:04:00,79.9,72.0,29.90,WSW,247,0.0,-999.0,77,0.00,,,0.00,open2300 v1.10,2013-06-27 09:04:00,
2013-06-27 04:12:00,79.9,72.0,29.90,SSW,202,0.0,-999.0,77,0.00,,,0.00,open2300 v1.10,2013-06-27 09:12:00,
2013-06-27 04:18:00,79.7,72.2,29.90,West,270,0.0,-999.0,78,0.00,,,0.00,open2300 v1.10,2013-06-27 09:18:00,
2013-06-27 04:27:00,79.7,72.2,29.90,SSE,157,0.0,-999.0,78,0.00,,,0.00,open2300 v1.10,2013-06-27 09:27:00,
2013-06-27 04:33:00,79.5,72.1,29.90,NW,315,0.0,-999.0,78,0.00,,,0.00,open2300 v1.10,2013-06-27 09:33:00,
2013-06-27 04:42:00,79.3,72.3,29.90,SE,135,0.0,-999.0,79,0.00,,,0.00,open2300 v1.10,2013-06-27 09:42:00,
2013-06-27 04:48:00,79.3,72.3,29.90,SE,135,0.0,-999.0,79,0.00,,,0.00,open2300 v1.10,2013-06-27 09:48:00,
2013-06-27 04:57:00,79.2,72.1,29.91,SE,135,0.0,-999.0,79,0.00,,,0.00,open2300 v1.10,2013-06-27 09:57:00,
2013-06-27 05:05:00,79.0,71.9,29.91,SSE,157,0.0,-999.0,79,0.00,,,0.00,open2300 v1.10,2013-06-27 10:05:00,
2013-06-27 05:12:00,79.0,71.9,29.92,SSE,157,0.0,-999.0,79,0.00,,,0.00,open2300 v1.10,2013-06-27 10:12:00,
2013-06-27 05:18:00,78.6,72.0,29.92,SSE,157,0.0,-999.0,80,0.00,,,0.00,open2300 v1.10,2013-06-27 10:18:00,
2013-06-27 05:27:00,78.6,72.0,29.92,SSE,157,0.0,-999.0,80,0.00,,,0.00,open2300 v1.10,2013-06-27 10:27:00,
2013-06-27 05:33:00,78.6,72.0,29.92,SSE,157,0.0,-999.0,80,0.00,,,0.00,open2300 v1.10,2013-06-27 10:33:00,
2013-06-27 05:42:00,78.6,72.3,29.92,SSE,157,0.0,-999.0,81,0.00,,,0.00,open2300 v1.10,2013-06-27 10:42:00,
2013-06-27 05:48:00,78.4,72.1,29.92,SSE,157,0.0,-999.0,81,0.00,,,0.00,open2300 v1.10,2013-06-27 10:48:00,
2013-06-27 05:57:00,78.3,72.0,29.92,SSE,157,0.0,-999.0,81,0.00,,,0.00,open2300 v1.10,2013-06-27 10:57:00,
2013-06-27 06:05:00,78.1,72.1,29.92,SE,135,0.0,-999.0,82,0.00,,,0.00,open2300 v1.10,2013-06-27 11:05:00,
2013-06-27 06:12:00,78.1,72.1,29.92,SSE,157,0.0,-999.0,82,0.00,,,0.00,open2300 v1.10,2013-06-27 11:12:00,
2013-06-27 06:18:00,78.1,72.1,29.92,SSE,157,0.0,-999.0,82,0.00,,,0.00,open2300 v1.10,2013-06-27 11:18:00,
2013-06-27 06:27:00,78.1,72.5,29.92,SSE,157,0.0,-999.0,83,0.00,,,0.00,open2300 v1.10,2013-06-27 11:27:00,
2013-06-27 06:33:00,78.1,72.5,29.92,SSE,157,0.0,-999.0,83,0.00,,,0.00,open2300 v1.10,2013-06-27 11:33:00,
2013-06-27 06:42:00,78.1,72.5,29.92,SSE,157,0.0,-999.0,83,0.00,,,0.00,open2300 v1.10,2013-06-27 11:42:00,
2013-06-27 06:48:00,78.3,72.7,29.92,SSE,157,0.0,-999.0,83,0.00,,,0.00,open2300 v1.10,2013-06-27 11:48:00,
2013-06-27 06:57:00,78.4,72.9,29.92,SE,135,0.0,-999.0,83,0.00,,,0.00,open2300 v1.10,2013-06-27 11:57:00,
2013-06-27 07:05:00,78.6,73.0,29.92,SSE,157,0.0,-999.0,83,0.00,,,0.00,open2300 v1.10,2013-06-27 12:05:00,
2013-06-27 07:12:00,79.0,73.4,29.92,SSE,157,0.0,-999.0,83,0.00,,,0.00,open2300 v1.10,2013-06-27 12:12:00,
2013-06-27 07:18:00,79.0,73.0,29.92,SE,135,0.0,-999.0,82,0.00,,,0.00,open2300 v1.10,2013-06-27 12:18:00,
2013-06-27 07:27:00,79.3,73.4,29.93,SSE,157,0.0,-999.0,82,0.00,,,0.00,open2300 v1.10,2013-06-27 12:27:00,
2013-06-27 07:33:00,79.3,73.4,29.93,SE,135,0.0,-999.0,82,0.00,,,0.00,open2300 v1.10,2013-06-27 12:33:00,
2013-06-27 07:42:00,79.7,73.7,29.93,SE,135,0.0,-999.0,82,0.00,,,0.00,open2300 v1.10,2013-06-27 12:42:00,
2013-06-27 07:48:00,80.1,73.7,29.93,SE,135,0.0,-999.0,81,0.00,,,0.00,open2300 v1.10,2013-06-27 12:48:00,
2013-06-27 07:57:00,80.4,74.1,29.94,SSE,157,0.0,-999.0,81,0.00,,,0.00,open2300 v1.10,2013-06-27 12:57:00,
2013-06-27 08:04:00,80.8,74.1,29.94,West,270,0.0,-999.0,80,0.00,,,0.00,open2300 v1.10,2013-06-27 13:04:00,
2013-06-27 08:12:00,81.1,74.5,29.94,WSW,247,0.0,-999.0,80,0.00,,,0.00,open2300 v1.10,2013-06-27 13:12:00,
2013-06-27 08:18:00,81.3,74.7,29.94,SE,135,0.0,-999.0,80,0.00,,,0.00,open2300 v1.10,2013-06-27 13:18:00,
2013-06-27 08:27:00,81.7,74.6,29.94,West,270,0.0,-999.0,79,0.00,,,0.00,open2300 v1.10,2013-06-27 13:27:00,
2013-06-27 08:33:00,82.0,75.0,29.94,South,180,0.0,-999.0,79,0.00,,,0.00,open2300 v1.10,2013-06-27 13:33:00,
2013-06-27 08:42:00,82.8,75.2,29.94,West,270,0.0,-999.0,78,0.00,,,0.00,open2300 v1.10,2013-06-27 13:42:00,
2013-06-27 08:48:00,83.1,74.8,29.94,WNW,292,0.0,-999.0,76,0.00,,,0.00,open2300 v1.10,2013-06-27 13:48:00,
2013-06-27 08:57:00,83.5,75.1,29.93,WSW,247,0.0,-999.0,76,0.00,,,0.00,open2300 v1.10,2013-06-27 13:57:00,
2013-06-27 09:04:00,83.8,75.0,29.93,West,270,0.0,-999.0,75,0.00,,,0.00,open2300 v1.10,2013-06-27 14:04:00,
2013-06-27 09:12:00,84.4,75.2,29.93,SSE,157,0.0,-999.0,74,0.00,,,0.00,open2300 v1.10,2013-06-27 14:12:00,
2013-06-27 09:18:00,84.6,75.3,29.93,SSE,157,0.0,-999.0,74,0.00,,,0.00,open2300 v1.10,2013-06-27 14:18:00,
2013-06-27 09:27:00,85.1,75.5,29.93,WSW,247,0.0,-999.0,73,0.00,,,0.00,open2300 v1.10,2013-06-27 14:27:00,
2013-06-27 09:33:00,85.6,75.6,29.93,WSW,247,0.0,-999.0,72,0.00,,,0.00,open2300 v1.10,2013-06-27 14:33:00,
2013-06-27 09:42:00,86.2,75.8,29.93,SSE,157,0.0,-999.0,71,0.00,,,0.00,open2300 v1.10,2013-06-27 14:42:00,
2013-06-27 09:48:00,86.5,76.1,29.93,SW,225,0.0,-999.0,71,0.00,,,0.00,open2300 v1.10,2013-06-27 14:48:00,
2013-06-27 09:57:00,86.7,75.8,29.93,WSW,247,0.0,-999.0,70,0.00,,,0.00,open2300 v1.10,2013-06-27 14:57:00,
2013-06-27 10:04:00,86.9,76.0,29.93,WNW,292,0.0,-999.0,70,0.00,,,0.00,open2300 v1.10,2013-06-27 15:04:00,
2013-06-27 10:12:00,87.1,76.2,29.93,South,180,0.0,-999.0,70,0.00,,,0.00,open2300 v1.10,2013-06-27 15:12:00,
2013-06-27 10:18:00,87.4,76.5,29.93,SSW,202,0.0,-999.0,70,0.00,,,0.00,open2300 v1.10,2013-06-27 15:18:00,
2013-06-27 10:27:00,88.3,76.5,29.93,WSW,247,0.0,-999.0,69,0.00,,,0.00,open2300 v1.10,2013-06-27 15:27:00,
2013-06-27 10:33:00,88.9,77.0,29.93,WSW,247,0.0,-999.0,68,0.00,,,0.00,open2300 v1.10,2013-06-27 15:33:00,
2013-06-27 10:42:00,90.1,77.4,29.93,SSE,157,0.0,-999.0,67,0.00,,,0.00,open2300 v1.10,2013-06-27 15:42:00,
2013-06-27 10:48:00,91.0,78.0,29.93,South,180,0.0,-999.0,66,0.00,,,0.00,open2300 v1.10,2013-06-27 15:48:00,
2013-06-27 10:57:00,90.5,77.6,29.93,SE,135,0.0,-999.0,66,0.00,,,0.00,open2300 v1.10,2013-06-27 15:57:00,
2013-06-27 11:05:00,91.8,77.8,29.93,SE,135,0.0,-999.0,64,0.00,,,0.00,open2300 v1.10,2013-06-27 16:05:00,
2013-06-27 11:12:00,91.9,78.0,29.92,SSE,157,0.0,-999.0,64,0.00,,,0.00,open2300 v1.10,2013-06-27 16:12:00,
2013-06-27 11:18:00,92.5,78.5,29.93,SSE,157,0.0,-999.0,64,0.00,,,0.00,open2300 v1.10,2013-06-27 16:18:00,
2013-06-27 11:27:00,93.7,78.8,29.93,SSE,157,0.0,-999.0,62,0.00,,,0.00,open2300 v1.10,2013-06-27 16:27:00,
2013-06-27 11:33:00,93.9,78.5,29.93,SSE,157,0.0,-999.0,61,0.00,,,0.00,open2300 v1.10,2013-06-27 16:33:00,
2013-06-27 11:42:00,95.0,79.0,29.92,East,90,0.0,-999.0,60,0.00,,,0.00,open2300 v1.10,2013-06-27 16:42:00,
2013-06-27 11:48:00,95.5,78.9,29.92,NE,45,0.0,-999.0,59,0.00,,,0.00,open2300 v1.10,2013-06-27 16:48:00,
2013-06-27 11:57:00,94.8,78.3,29.92,NW,315,0.0,-999.0,59,0.00,,,0.00,open2300 v1.10,2013-06-27 16:57:00,
2013-06-27 12:04:00,95.5,78.4,29.92,NE,45,0.0,-999.0,58,0.00,,,0.00,open2300 v1.10,2013-06-27 17:04:00,
2013-06-27 12:12:00,95.7,78.6,29.92,SW,225,0.0,-999.0,58,0.00,,,0.00,open2300 v1.10,2013-06-27 17:12:00,
2013-06-27 12:18:00,96.1,79.4,29.92,SW,225,0.0,-999.0,59,0.00,,,0.00,open2300 v1.10,2013-06-27 17:18:00,
2013-06-27 12:27:00,95.9,79.2,29.92,North,0,0.0,-999.0,59,0.00,,,0.00,open2300 v1.10,2013-06-27 17:27:00,
2013-06-27 12:33:00,96.4,78.7,29.92,West,270,0.0,-999.0,57,0.00,,,0.00,open2300 v1.10,2013-06-27 17:33:00,
2013-06-27 12:42:00,96.1,77.8,29.92,NNW,337,0.0,-999.0,56,0.00,,,0.00,open2300 v1.10,2013-06-27 17:42:00,
2013-06-27 12:48:00,96.1,78.3,29.91,NNW,337,0.0,-999.0,57,0.00,,,0.00,open2300 v1.10,2013-06-27 17:48:00,
2013-06-27 12:57:00,97.0,78.6,29.91,North,0,0.0,-999.0,56,0.00,,,0.00,open2300 v1.10,2013-06-27 17:57:00,
2013-06-27 13:04:00,97.7,79.3,29.92,NNW,337,0.0,-999.0,56,0.00,,,0.00,open2300 v1.10,2013-06-27 18:04:00,
2013-06-27 13:12:00,98.2,79.3,29.91,SE,135,0.0,-999.0,55,0.00,,,0.00,open2300 v1.10,2013-06-27 18:12:00,
2013-06-27 13:18:00,97.9,78.4,29.91,NNW,337,0.0,-999.0,54,0.00,,,0.00,open2300 v1.10,2013-06-27 18:18:00,
2013-06-27 13:27:00,96.4,77.6,29.92,SSE,157,0.0,-999.0,55,0.00,,,0.00,open2300 v1.10,2013-06-27 18:27:00,
2013-06-27 13:33:00,95.7,78.0,29.91,SSE,157,0.0,-999.0,57,0.00,,,0.00,open2300 v1.10,2013-06-27 18:33:00,
2013-06-27 13:42:00,96.6,78.8,29.91,SE,135,0.0,-999.0,57,0.00,,,0.00,open2300 v1.10,2013-06-27 18:42:00,
2013-06-27 13:48:00,96.6,78.3,29.91,SSW,202,0.0,-999.0,56,0.00,,,0.00,open2300 v1.10,2013-06-27 18:48:00,
2013-06-27 13:57:00,96.4,78.7,29.91,SSE,157,0.0,-999.0,57,0.00,,,0.00,open2300 v1.10,2013-06-27 18:57:00,
2013-06-27 14:05:00,97.0,78.6,29.91,SSE,157,0.0,-999.0,56,0.00,,,0.00,open2300 v1.10,2013-06-27 19:05:00,
2013-06-27 14:12:00,96.1,78.3,29.91,WSW,247,0.0,-999.0,57,0.00,,,0.00,open2300 v1.10,2013-06-27 19:12:00,
2013-06-27 14:18:00,96.4,78.7,29.91,SE,135,0.0,-999.0,57,0.00,,,0.00,open2300 v1.10,2013-06-27 19:18:00,
2013-06-27 14:27:00,96.3,77.9,29.90,SSE,157,0.0,-999.0,56,0.00,,,0.00,open2300 v1.10,2013-06-27 19:27:00,
2013-06-27 14:33:00,95.9,78.2,29.90,SSE,157,0.0,-999.0,57,0.00,,,0.00,open2300 v1.10,2013-06-27 19:33:00,
2013-06-27 14:42:00,95.9,78.2,29.90,NW,315,0.0,-999.0,57,0.00,,,0.00,open2300 v1.10,2013-06-27 19:42:00,
2013-06-27 14:48:00,95.5,77.3,29.90,SW,225,0.0,-999.0,56,0.00,,,0.00,open2300 v1.10,2013-06-27 19:48:00,
2013-06-27 14:57:00,95.0,77.4,29.90,SSE,157,0.0,-999.0,57,0.00,,,0.00,open2300 v1.10,2013-06-27 19:57:00,
2013-06-27 15:05:00,95.0,77.9,29.90,North,0,0.0,-999.0,58,0.00,,,0.00,open2300 v1.10,2013-06-27 20:05:00,
2013-06-27 15:12:00,95.4,78.2,29.90,SSE,157,0.0,-999.0,58,0.00,,,0.00,open2300 v1.10,2013-06-27 20:12:00,
2013-06-27 15:18:00,95.4,78.2,29.89,South,180,0.0,-999.0,58,0.00,,,0.00,open2300 v1.10,2013-06-27 20:18:00,
2013-06-27 15:27:00,95.2,78.1,29.89,SSE,157,0.0,-999.0,58,0.00,,,0.00,open2300 v1.10,2013-06-27 20:27:00,
2013-06-27 15:33:00,95.4,78.2,29.89,SE,135,0.0,-999.0,58,0.00,,,0.00,open2300 v1.10,2013-06-27 20:33:00,
2013-06-27 15:42:00,95.2,77.5,29.88,SW,225,0.0,-999.0,57,0.00,,,0.00,open2300 v1.10,2013-06-27 20:42:00,
2013-06-27 15:48:00,94.8,77.2,29.88,SW,225,0.0,-999.0,57,0.00,,,0.00,open2300 v1.10,2013-06-27 20:48:00,
2013-06-27 15:57:00,94.6,77.6,29.89,SSW,202,0.0,-999.0,58,0.00,,,0.00,open2300 v1.10,2013-06-27 20:57:00,
2013-06-27 16:05:00,94.8,78.3,29.89,WNW,292,0.0,-999.0,59,0.00,,,0.00,open2300 v1.10,2013-06-27 21:05:00,
2013-06-27 16:33:00,94.8,77.7,29.87,SE,135,0.0,-999.0,58,0.00,,,0.00,open2300 v1.10,2013-06-27 21:33:00,
2013-06-27 16:42:00,93.9,76.9,29.87,SE,135,0.0,-999.0,58,0.00,,,0.00,open2300 v1.10,2013-06-27 21:42:00,
2013-06-27 16:48:00,93.4,77.0,29.87,SE,135,0.0,-999.0,59,0.00,,,0.00,open2300 v1.10,2013-06-27 21:48:00,
2013-06-27 16:57:00,92.1,76.8,29.86,SE,135,0.0,-999.0,61,0.00,,,0.00,open2300 v1.10,2013-06-27 21:57:00,
2013-06-27 17:04:00,91.0,76.6,29.87,SE,135,0.0,-999.0,63,0.00,,,0.00,open2300 v1.10,2013-06-27 22:04:00,
2013-06-27 17:12:00,89.4,74.2,29.87,NNW,337,0.0,-999.0,61,0.00,,,0.00,open2300 v1.10,2013-06-27 22:12:00,
2013-06-27 17:18:00,88.5,73.0,29.87,NNW,337,0.0,-999.0,60,0.00,,,0.00,open2300 v1.10,2013-06-27 22:18:00,
2013-06-27 17:27:00,84.4,70.4,29.89,NNW,337,0.0,-999.0,63,0.02,,,0.02,open2300 v1.10,2013-06-27 22:27:00,
2013-06-27 17:33:00,81.1,68.2,29.87,NNW,337,0.0,-999.0,67,0.06,,,0.06,open2300 v1.10,2013-06-27 22:33:00,
2013-06-27 17:42:00,77.7,67.6,29.86,NNW,337,0.0,-999.0,71,0.08,,,0.08,open2300 v1.10,2013-06-27 22:42:00,
2013-06-27 17:48:00,77.2,67.9,29.86,NNW,337,0.0,-999.0,73,0.08,,,0.08,open2300 v1.10,2013-06-27 22:48:00,
2013-06-27 17:57:00,76.8,69.4,29.86,NNW,337,0.0,-999.0,78,0.08,,,0.08,open2300 v1.10,2013-06-27 22:57:00,
2013-06-27 18:05:00,77.2,70.1,29.84,NNW,337,0.0,-999.0,79,0.08,,,0.08,open2300 v1.10,2013-06-27 23:05:00,
2013-06-27 18:12:00,77.4,70.7,29.85,NNW,337,0.0,-999.0,80,0.08,,,0.08,open2300 v1.10,2013-06-27 23:12:00,
2013-06-27 18:27:00,77.7,71.8,29.86,NNW,337,0.0,-999.0,82,0.06,,,0.08,open2300 v1.10,2013-06-27 23:27:00,
2013-06-27 18:33:00,77.7,71.8,29.85,NNW,337,0.0,-999.0,82,0.00,,,0.08,open2300 v1.10,2013-06-27 23:33:00,
2013-06-27 18:42:00,77.7,72.5,29.87,NNW,337,0.0,-999.0,84,0.00,,,0.08,open2300 v1.10,2013-06-27 23:42:00,
2013-06-27 18:48:00,77.9,72.7,29.88,NNW,337,0.0,-999.0,84,0.00,,,0.08,open2300 v1.10,2013-06-27 23:48:00,
2013-06-27 18:57:00,77.5,72.7,29.90,NW,315,0.0,-999.0,85,0.02,,,0.10,open2300 v1.10,2013-06-27 23:57:00,
2013-06-27 19:05:00,75.4,69.9,29.92,NNW,337,0.0,-999.0,83,0.06,,,0.14,open2300 v1.10,2013-06-28 00:05:00,
2013-06-27 19:12:00,73.6,68.5,29.92,SE,135,0.0,-999.0,84,0.22,,,0.31,open2300 v1.10,2013-06-28 00:12:00,
2013-06-27 19:18:00,73.0,67.9,29.90,SE,135,0.0,-999.0,85,0.26,,,0.35,open2300 v1.10,2013-06-28 00:18:00,
2013-06-27 19:33:00,71.8,67.5,29.89,SE,135,0.0,-999.0,86,0.31,,,0.39,open2300 v1.10,2013-06-28 00:33:00,
2013-06-27 20:27:00,72.3,68.9,29.88,SE,135,0.0,-999.0,89,0.00,,,0.39,open2300 v1.10,2013-06-28 01:27:00,
2013-06-27 20:33:00,72.3,68.9,29.88,SE,135,0.0,-999.0,89,0.00,,,0.39,open2300 v1.10,2013-06-28 01:33:00,
2013-06-27 20:42:00,72.3,68.9,29.87,SE,135,0.0,-999.0,89,0.00,,,0.39,open2300 v1.10,2013-06-28 01:42:00,
2013-06-27 20:57:00,72.3,68.9,29.86,SE,135,0.0,-999.0,89,0.00,,,0.39,open2300 v1.10,2013-06-28 01:57:00,
2013-06-27 21:05:00,72.3,68.9,29.86,SE,135,0.0,-999.0,89,0.00,,,0.39,open2300 v1.10,2013-06-28 02:05:00,
2013-06-27 21:12:00,72.3,68.9,29.85,SE,135,0.0,-999.0,89,0.00,,,0.39,open2300 v1.10,2013-06-28 02:12:00,
2013-06-27 21:18:00,72.3,68.9,29.84,SE,135,0.0,-999.0,89,0.00,,,0.39,open2300 v1.10,2013-06-28 02:18:00,
2013-06-27 21:27:00,72.1,68.7,29.84,SE,135,0.0,-999.0,89,0.00,,,0.39,open2300 v1.10,2013-06-28 02:27:00,
2013-06-27 21:33:00,71.8,68.4,29.83,SE,135,0.0,-999.0,89,0.00,,,0.39,open2300 v1.10,2013-06-28 02:33:00,
2013-06-27 21:42:00,71.8,68.4,29.82,SE,135,0.0,-999.0,89,0.00,,,0.39,open2300 v1.10,2013-06-28 02:42:00,
2013-06-27 21:57:00,71.8,68.7,29.83,SE,135,0.0,-999.0,90,0.00,,,0.39,open2300 v1.10,2013-06-28 02:57:00,
2013-06-27 22:05:00,71.8,68.7,29.85,SE,135,0.0,-999.0,90,0.00,,,0.39,open2300 v1.10,2013-06-28 03:05:00,
2013-06-27 22:18:00,71.8,68.7,29.85,SE,135,0.0,-999.0,90,0.00,,,0.39,open2300 v1.10,2013-06-28 03:18:00,
2013-06-27 22:27:00,71.8,68.7,29.85,SE,135,0.0,-999.0,90,0.00,,,0.39,open2300 v1.10,2013-06-28 03:27:00,
2013-06-27 22:33:00,72.0,68.9,29.86,SE,135,0.0,-999.0,90,0.00,,,0.39,open2300 v1.10,2013-06-28 03:33:00,
2013-06-27 22:42:00,72.0,68.9,29.87,SE,135,0.0,-999.0,90,0.00,,,0.39,open2300 v1.10,2013-06-28 03:42:00,
2013-06-27 22:48:00,72.1,69.1,29.88,SE,135,0.0,-999.0,90,0.00,,,0.39,open2300 v1.10,2013-06-28 03:48:00,
2013-06-27 23:05:00,72.3,69.6,29.88,SE,135,0.0,-999.0,91,0.00,,,0.39,open2300 v1.10,2013-06-28 04:05:00,
2013-06-27 23:12:00,72.3,69.6,29.88,SE,135,0.0,-999.0,91,0.00,,,0.39,open2300 v1.10,2013-06-28 04:12:00,
2013-06-27 23:18:00,72.3,69.6,29.88,SE,135,0.0,-999.0,91,0.00,,,0.39,open2300 v1.10,2013-06-28 04:18:00,
2013-06-27 23:27:00,72.3,69.6,29.88,SE,135,0.0,-999.0,91,0.00,,,0.39,open2300 v1.10,2013-06-28 04:27:00,
2013-06-27 23:33:00,72.3,69.6,29.87,SE,135,0.0,-999.0,91,0.00,,,0.39,open2300 v1.10,2013-06-28 04:33:00,
2013-06-27 23:42:00,72.3,69.6,29.87,SE,135,0.0,-999.0,91,0.00,,,0.39,open2300 v1.10,2013-06-28 04:42:00,
2013-06-27 23:48:00,72.3,69.6,29.87,SE,135,0.0,-999.0,91,0.00,,,0.39,open2300 v1.10,2013-06-28 04:48:00,
2013-06-27 23:57:00,72.3,69.6,29.86,SE,135,0.0,-999.0,91,0.00,,,0.39,open2300 v1.10,2013-06-28 04:57:00,